Weather History for Red Oak, IA

Change the Weather History Date:

Tuesday, September 17, 2013

  Actual Average Record
Temperature  
Mean Temperature 63 °F -  
Max Temperature 71 °F 77 °F 95 °F (1953)
Min Temperature 55 °F 52 °F 30 °F (1980)
Degree Days  
Heating Degree Days 2    
Growing Degree Days 13 (Base 50)    
Moisture  
Dew Point 56 °F    
Average Humidity 80    
Maximum Humidity 88    
Minimum Humidity 73    
Precipitation  
Precipitation 0.92 in - - ()
Sea Level Pressure  
Sea Level Pressure 30.07 in    
Wind  
Wind Speed 6 mph (SE)    
Max Wind Speed 15 mph    
Max Gust Speed 21 mph    
Visibility 8 miles    
Events Rain    
Averages and records for this station are not official NWS values.
T = Trace of Precipitation, MM = Missing Value Source: NWS Daily Summary

Daily Weather History Graph

Daily Weather History Graph

Search for Another Location

Airport:

Trip Planner

Search our weather history database for the weather conditions in past years. The results will help you decide how hot, cold, wet, or windy it might be!

Date:

Astronomy

Sep. 17, 2013 Rise Set
Actual Time 7:03 AM CDT 7:26 PM CDT
Civil Twilight 6:36 AM CDT 7:53 PM CDT
Nautical Twilight 6:03 AM CDT 8:26 PM CDT
Astronomical Twilight 5:30 AM CDT 8:59 PM CDT
Moon 6:14 PM CDT (9/17) 4:58 AM CDT (9/17)
Length of Visible Light 13h 17m
Length of Day
12h 22m
Waxing Gibbous, 96% of the Moon is Illuminated
Sep 17
Waxing Gibbous
Sep 19
Full
Sep 26
Last Quarter
Oct 4
New
Oct 11
First Quarter

Hourly Weather History & Observations

Time (CDT) Temp. Dew Point Humidity Pressure Visibility Wind Dir Wind Speed Gust Speed Precip Events Conditions
12:15 AM 57.2 °F 51.8 °F 82% 30.22 in 10.0 mi East 4.6 mph - 0.02 in Rain Light Rain
12:35 AM 57.2 °F 51.8 °F 82% 30.21 in 10.0 mi East 4.6 mph - 0.02 in   Light Drizzle
12:55 AM 57.2 °F 51.8 °F 82% 30.21 in 10.0 mi East 5.8 mph - 0.02 in   Drizzle
1:15 AM 57.2 °F 51.8 °F 82% 30.21 in 10.0 mi East 4.6 mph - N/A   Light Drizzle
1:35 AM 57.2 °F 51.8 °F 82% 30.21 in 10.0 mi ESE 3.5 mph - N/A   Drizzle
1:55 AM 57.2 °F 51.8 °F 82% 30.21 in 10.0 mi ESE 3.5 mph - N/A   Drizzle
2:15 AM 55.4 °F 50.0 °F 82% 30.21 in 7.0 mi ESE 6.9 mph - 0.19 in Rain Heavy Rain
2:35 AM 55.4 °F 50.0 °F 82% 30.21 in 7.0 mi ESE 5.8 mph - 0.28 in Rain Rain
2:55 AM 55.4 °F 50.0 °F 82% 30.20 in 7.0 mi ESE 5.8 mph - 0.31 in Rain Rain
3:15 AM 55.4 °F 50.0 °F 82% 30.19 in 4.0 mi ESE 5.8 mph - 0.10 in Rain Heavy Rain
3:35 AM 55.4 °F 50.0 °F 82% 30.19 in 3.0 mi ESE 5.8 mph - 0.28 in Rain Heavy Rain
3:55 AM 55.4 °F 50.0 °F 82% 30.18 in 10.0 mi East 3.5 mph - 0.42 in Rain Rain
4:15 AM 55.4 °F 50.0 °F 82% 30.17 in 5.0 mi ESE 6.9 mph - 0.13 in Rain Heavy Rain
4:35 AM 55.4 °F 51.8 °F 88% 30.17 in 7.0 mi ESE 6.9 mph - 0.16 in Rain Light Rain
4:55 AM 55.4 °F 51.8 °F 88% 30.16 in 4.0 mi ESE 6.9 mph - 0.17 in   Light Drizzle
5:15 AM 55.4 °F 51.8 °F 88% 30.15 in 10.0 mi ESE 4.6 mph - N/A   Light Drizzle
5:35 AM 55.4 °F 51.8 °F 88% 30.15 in 10.0 mi ESE 4.6 mph - N/A   Overcast
5:55 AM 55.4 °F 51.8 °F 88% 30.15 in 10.0 mi SE 5.8 mph - N/A   Overcast
6:15 AM 55.4 °F 51.8 °F 88% 30.14 in 10.0 mi ESE 5.8 mph - N/A   Overcast
6:35 AM 57.2 °F 51.8 °F 82% 30.14 in 10.0 mi SE 4.6 mph - N/A   Overcast
6:55 AM 57.2 °F 51.8 °F 82% 30.14 in 10.0 mi SE 4.6 mph - N/A   Overcast
7:15 AM 57.2 °F 51.8 °F 82% 30.15 in 10.0 mi SE 4.6 mph - N/A   Overcast
7:35 AM 57.2 °F 51.8 °F 82% 30.15 in 7.0 mi SSE 3.5 mph - N/A Rain Rain
7:55 AM 57.2 °F 51.8 °F 82% 30.14 in 7.0 mi SE 4.6 mph - N/A   Light Drizzle
8:15 AM 57.2 °F 51.8 °F 82% 30.14 in 7.0 mi SSE 5.8 mph - N/A   Overcast
8:35 AM 57.2 °F 51.8 °F 82% 30.14 in 5.0 mi SSE 5.8 mph - N/A   Haze
8:55 AM 57.2 °F 51.8 °F 82% 30.13 in 5.0 mi SE 5.8 mph - N/A   Haze
9:15 AM 57.2 °F 53.6 °F 88% 30.13 in 4.0 mi SSE 5.8 mph - N/A   Haze
9:35 AM 57.2 °F 53.6 °F 88% 30.13 in 5.0 mi SSE 5.8 mph - N/A   Haze
9:55 AM 57.2 °F 53.6 °F 88% 30.14 in 5.0 mi SSE 6.9 mph - N/A Rain Light Rain
10:15 AM 59.0 °F 53.6 °F 82% 30.13 in 4.0 mi SSE 5.8 mph - N/A   Light Drizzle
10:35 AM 59.0 °F 53.6 °F 82% 30.13 in 4.0 mi SSE 6.9 mph - N/A   Haze
10:55 AM 60.8 °F 53.6 °F 77% 30.12 in 5.0 mi SE 8.1 mph - N/A   Haze
11:15 AM 60.8 °F 55.4 °F 82% 30.11 in 7.0 mi SSE 9.2 mph - N/A   Overcast
11:35 AM 60.8 °F 55.4 °F 82% 30.11 in 7.0 mi SSE 8.1 mph - N/A   Overcast
11:55 AM 62.6 °F 55.4 °F 77% 30.10 in 7.0 mi SSE 5.8 mph - N/A   Overcast
12:15 PM 62.6 °F 55.4 °F 77% 30.09 in 7.0 mi SSE 6.9 mph - N/A   Overcast
12:35 PM 62.6 °F 55.4 °F 77% 30.08 in 5.0 mi SE 5.8 mph - N/A   Haze
12:55 PM 62.6 °F 57.2 °F 82% 30.08 in 7.0 mi SSE 4.6 mph - N/A   Overcast
1:15 PM 64.4 °F 57.2 °F 77% 30.07 in 7.0 mi SE 5.8 mph - N/A   Overcast
1:35 PM 64.4 °F 57.2 °F 77% 30.05 in 7.0 mi SE 6.9 mph - N/A   Overcast
1:55 PM 66.2 °F 59.0 °F 78% 30.04 in 7.0 mi SSE 11.5 mph - N/A   Overcast
2:15 PM 66.2 °F 59.0 °F 78% 30.03 in 10.0 mi SSE 10.4 mph - N/A   Overcast
2:35 PM 66.2 °F 59.0 °F 78% 30.03 in 10.0 mi SSE 10.4 mph - N/A   Overcast
2:55 PM 66.2 °F 59.0 °F 78% 30.02 in 7.0 mi SSE 11.5 mph - N/A   Overcast
3:15 PM 66.2 °F 59.0 °F 78% 30.01 in 7.0 mi SE 9.2 mph - N/A   Overcast
3:35 PM 66.2 °F 60.8 °F 83% 30.01 in 10.0 mi South 11.5 mph - N/A   Overcast
3:55 PM 68.0 °F 60.8 °F 78% 29.99 in 10.0 mi South 10.4 mph - N/A   Overcast
4:15 PM 68.0 °F 60.8 °F 78% 29.98 in 10.0 mi SSE 10.4 mph - N/A   Overcast
4:35 PM 69.8 °F 60.8 °F 73% 29.97 in 10.0 mi SE 10.4 mph - N/A   Overcast
4:55 PM 69.8 °F 60.8 °F 73% 29.96 in 10.0 mi SE 9.2 mph - N/A   Overcast
5:15 PM 69.8 °F 62.6 °F 78% 29.96 in 10.0 mi ESE 11.5 mph - N/A   Overcast
5:35 PM 71.6 °F 62.6 °F 73% 29.95 in 10.0 mi SE 10.4 mph - N/A   Mostly Cloudy
5:55 PM 71.6 °F 62.6 °F 73% 29.94 in 10.0 mi SE 9.2 mph - N/A   Scattered Clouds
6:15 PM 71.6 °F 62.6 °F 73% 29.94 in 7.0 mi ESE 4.6 mph - N/A   Mostly Cloudy
6:35 PM 71.6 °F 62.6 °F 73% 29.93 in 7.0 mi ESE 6.9 mph - N/A   Overcast
6:55 PM 69.8 °F 62.6 °F 78% 29.92 in 7.0 mi ESE 9.2 mph - N/A   Mostly Cloudy
7:15 PM 69.8 °F 62.6 °F 78% 29.92 in 10.0 mi ESE 9.2 mph - N/A   Mostly Cloudy
7:35 PM 69.8 °F 62.6 °F 78% 29.91 in 10.0 mi ESE 10.4 mph - N/A   Mostly Cloudy
7:55 PM 69.8 °F 62.6 °F 78% 29.92 in 10.0 mi SE 9.2 mph - N/A   Mostly Cloudy
8:15 PM 69.8 °F 62.6 °F 78% 29.92 in 10.0 mi SE 6.9 mph - N/A   Overcast
8:35 PM 69.8 °F 62.6 °F 78% 29.94 in 10.0 mi SSE 3.5 mph - N/A   Overcast
8:55 PM 68.0 °F 60.8 °F 78% 29.94 in 7.0 mi Calm Calm - N/A   Mostly Cloudy
9:15 PM 68.0 °F 60.8 °F 78% 29.95 in 7.0 mi SE 4.6 mph - N/A   Mostly Cloudy
9:35 PM 68.0 °F 62.6 °F 83% 29.95 in 7.0 mi SSE 4.6 mph - N/A   Mostly Cloudy
9:55 PM 68.0 °F 62.6 °F 83% 29.96 in 7.0 mi SSE 6.9 mph - N/A   Overcast
10:15 PM 68.0 °F 60.8 °F 78% 29.96 in 7.0 mi SSE 9.2 mph - N/A   Mostly Cloudy
10:35 PM 68.0 °F 62.6 °F 83% 29.96 in 7.0 mi SSE 9.2 mph - N/A   Overcast
10:55 PM 68.0 °F 60.8 °F 78% 29.96 in 7.0 mi South 10.4 mph - N/A   Overcast
11:15 PM 68.0 °F 60.8 °F 78% 29.96 in 7.0 mi SSE 11.5 mph 17.3 mph N/A   Overcast
11:35 PM 69.8 °F 60.8 °F 73% 29.95 in 7.0 mi South 15.0 mph 20.7 mph N/A   Overcast
11:55 PM 69.8 °F 60.8 °F 73% 29.95 in 7.0 mi South 12.7 mph 18.4 mph N/A   Overcast